Find Starlink 1423

NORAD ID: 45710 Int'l Des: 2020-035 Owner: SPXS Country: US Constellation: starlink operational
LEOCIRCULAR

Live Position

Loading 3D Globe...

About Starlink 1423

Description loading...

Upcoming Passes

Passes for default location (London). Set your location on the main map for personalized predictions.

Altitude History

Loading altitude history...

Two-Line Element Set

1 45710U 20035BF 26106.73045510 .00026707 00000-0 32680-3 0 9991
2 45710 53.0455 197.6572 0007360 300.3457 59.6827 15.60198870325277
Epoch: Apr 16, 2026 • Age: 11 hours

Current Status

Altitude 390.6 km
Velocity 7.68 km/s
Sub-Earth Point 8.65°N, 88.22°E
Launch Date Jun 4, 2020
Age 5.8 years
Type internet

Technical Details

Classification Payload
Mass 260.00 kg
Dry Mass 248.00 kg
Total Mass 260.00 kg
Length 0.20 m
Diameter 2.80 m
Span 9.00 m
Shape Box + pan
Manufacturer SPXS
Bus Type Starlink
Phase Status In Orbit
Owner/State SPXS/US

Most Searched